Location: Härggis
(46.9540°N, 8.4897°E)
Time: 21:55:04
(UTC+00:00)

Cosmos 1943 - Pass Details

Date: 27 May 2022
Orbit: 834 x 849 km, 71.0° (Epoch: 03 July)

Event Time Altitude Azimuth Distance (km) Brightness Sun altitude
Exits shadow 02:35:47 10° 207° (SSW) 2,477 5.0 -9.2°
Reaches altitude 10° 02:35:48 10° 207° (SSW) 2,468 5.0 -9.2°
Maximum altitude 02:41:30 85° 296° (WNW) 858 3.3 -8.5°
Drops below altitude 10° 02:47:13 10° 26° (NNE) 2,479 7.0 -7.8°
Sets 02:49:40 0° 27° (NNE) 3,416 7.9 -7.5°
